Time,TemperatureF,DewpointF,PressureIn,WindDirection,WindDirectionDegrees,WindSpeedMPH,WindSpeedGustMPH,Humidity,HourlyPrecipIn,Conditions,Clouds,dailyrainin,SoftwareType,DateUTC
2013-05-24 00:01:00,50.5,50.2,29.72,West,270,16.1,16.1,99,0.01,RA,,0.00,WeatherDisplay:10.37,2013-05-24 04:01:00,
2013-05-24 00:02:00,50.5,50.2,29.72,WNW,292,14.5,14.5,99,0.00,RA,,0.00,WeatherDisplay:10.37,2013-05-24 04:02:00,
2013-05-24 00:03:00,50.5,50.2,29.72,West,270,18.1,18.1,99,0.00,RA,,0.00,WeatherDisplay:10.37,2013-05-24 04:03:00,
2013-05-24 00:08:00,50.2,49.9,29.72,West,270,13.0,13.0,99,0.00,RA,,0.00,WeatherDisplay:10.37,2013-05-24 04:08:00,
2013-05-24 00:13:00,49.6,49.3,29.72,West,270,19.6,19.6,99,0.00,OVC,,0.00,WeatherDisplay:10.37,2013-05-24 04:13:00,
2013-05-24 00:18:00,49.3,49.0,29.73,SW,225,18.4,18.4,99,0.00,OVC,,0.00,WeatherDisplay:10.37,2013-05-24 04:18:00,
2013-05-24 00:23:00,49.3,49.0,29.73,WNW,292,16.6,16.6,99,0.00,OVC,,0.00,WeatherDisplay:10.37,2013-05-24 04:23:00,
2013-05-24 00:28:00,49.1,48.8,29.73,WSW,248,18.4,18.4,99,0.00,OVC,,0.00,WeatherDisplay:10.37,2013-05-24 04:28:00,
2013-05-24 00:33:00,48.9,48.6,29.73,WSW,248,16.1,16.1,99,0.00,OVC,,0.00,WeatherDisplay:10.37,2013-05-24 04:33:00,
2013-05-24 00:38:00,48.7,48.4,29.73,West,270,15.0,15.0,99,0.00,OVC,,0.00,WeatherDisplay:10.37,2013-05-24 04:38:00,
2013-05-24 00:43:00,48.4,48.1,29.73,West,270,15.0,15.0,99,0.00,OVC,,0.00,WeatherDisplay:10.37,2013-05-24 04:43:00,
2013-05-24 00:48:00,48.2,47.9,29.73,WSW,248,20.7,20.7,99,0.00,OVC,,0.00,WeatherDisplay:10.37,2013-05-24 04:48:00,
2013-05-24 00:53:00,48.2,47.9,29.74,WSW,248,14.0,14.0,99,0.00,OVC,,0.00,WeatherDisplay:10.37,2013-05-24 04:53:00,
2013-05-24 00:58:00,48.0,47.7,29.74,WSW,248,15.5,15.5,99,0.00,OVC,,0.00,WeatherDisplay:10.37,2013-05-24 04:58:00,
2013-05-24 01:03:00,47.7,47.4,29.75,West,270,21.9,21.9,99,0.00,OVC,,0.00,WeatherDisplay:10.37,2013-05-24 05:03:00,
2013-05-24 01:08:00,47.7,47.4,29.75,West,270,15.0,15.0,99,0.00,OVC,,0.00,WeatherDisplay:10.37,2013-05-24 05:08:00,
2013-05-24 01:13:00,47.7,47.4,29.75,West,270,15.5,15.5,99,0.00,OVC,,0.00,WeatherDisplay:10.37,2013-05-24 05:13:00,
2013-05-24 01:18:00,47.7,47.4,29.75,West,270,11.5,11.5,99,0.00,OVC,,0.00,WeatherDisplay:10.37,2013-05-24 05:18:00,
2013-05-24 01:23:00,47.7,47.4,29.75,WSW,248,15.0,15.0,99,0.00,OVC,,0.00,WeatherDisplay:10.37,2013-05-24 05:23:00,
2013-05-24 01:28:00,47.5,47.2,29.75,West,270,15.0,15.0,99,0.00,OVC,,0.00,WeatherDisplay:10.37,2013-05-24 05:28:00,
2013-05-24 01:33:00,47.5,47.2,29.75,NW,315,16.1,16.1,99,0.00,OVC,,0.00,WeatherDisplay:10.37,2013-05-24 05:33:00,
2013-05-24 01:38:00,47.3,47.0,29.75,West,270,16.1,16.1,99,0.00,OVC,,0.00,WeatherDisplay:10.37,2013-05-24 05:38:00,
2013-05-24 01:43:00,47.1,46.8,29.75,West,270,15.0,15.0,99,0.00,OVC,,0.00,WeatherDisplay:10.37,2013-05-24 05:43:00,
2013-05-24 01:48:00,46.9,46.6,29.75,WSW,248,15.0,15.0,99,0.00,OVC,,0.00,WeatherDisplay:10.37,2013-05-24 05:48:00,
2013-05-24 01:53:00,46.8,46.5,29.76,West,270,11.5,11.5,99,0.00,OVC,,0.00,WeatherDisplay:10.37,2013-05-24 05:53:00,
2013-05-24 01:58:00,46.2,45.9,29.76,West,270,16.1,16.1,99,0.00,OVC,,0.00,WeatherDisplay:10.37,2013-05-24 05:58:00,
2013-05-24 02:03:00,46.0,45.7,29.77,WSW,248,21.9,21.9,99,0.00,OVC,,0.00,WeatherDisplay:10.37,2013-05-24 06:03:00,
2013-05-24 02:08:00,45.7,45.4,29.77,WSW,248,18.1,18.1,99,0.00,OVC,,0.00,WeatherDisplay:10.37,2013-05-24 06:08:00,
2013-05-24 02:13:00,45.7,45.4,29.76,WSW,248,15.5,15.5,99,0.00,OVC,,0.00,WeatherDisplay:10.37,2013-05-24 06:13:00,
2013-05-24 02:18:00,45.5,45.2,29.76,SW,225,15.0,15.0,99,0.00,OVC,,0.00,WeatherDisplay:10.37,2013-05-24 06:18:00,
2013-05-24 02:23:00,45.5,45.2,29.76,WSW,248,16.1,16.1,99,0.00,OVC,,0.00,WeatherDisplay:10.37,2013-05-24 06:23:00,
2013-05-24 02:28:00,45.5,45.2,29.76,West,270,13.8,13.8,99,0.00,OVC,,0.00,WeatherDisplay:10.37,2013-05-24 06:28:00,
2013-05-24 02:33:00,45.5,45.2,29.76,West,270,13.0,13.0,99,0.00,OVC,,0.00,WeatherDisplay:10.37,2013-05-24 06:33:00,
2013-05-24 02:38:00,45.3,45.0,29.77,WSW,248,11.5,11.5,99,0.00,OVC,,0.00,WeatherDisplay:10.37,2013-05-24 06:38:00,
2013-05-24 02:43:00,45.1,44.8,29.77,West,270,11.5,11.5,99,0.00,OVC,,0.00,WeatherDisplay:10.37,2013-05-24 06:43:00,
2013-05-24 02:48:00,45.0,44.7,29.77,WSW,248,17.3,17.3,99,0.00,OVC,,0.00,WeatherDisplay:10.37,2013-05-24 06:48:00,
2013-05-24 02:53:00,45.0,44.7,29.78,WSW,248,13.0,13.0,99,0.00,OVC,,0.00,WeatherDisplay:10.37,2013-05-24 06:53:00,
2013-05-24 02:58:00,44.6,44.3,29.78,West,270,15.5,15.5,99,0.00,OVC,,0.00,WeatherDisplay:10.37,2013-05-24 06:58:00,
2013-05-24 03:03:00,44.6,44.3,29.78,WNW,292,16.1,16.1,99,0.00,OVC,,0.00,WeatherDisplay:10.37,2013-05-24 07:03:00,
2013-05-24 03:08:00,44.6,44.3,29.78,West,270,10.4,10.4,99,0.00,OVC,,0.00,WeatherDisplay:10.37,2013-05-24 07:08:00,
2013-05-24 03:13:00,44.6,44.3,29.78,West,270,12.7,12.7,99,0.00,OVC,,0.00,WeatherDisplay:10.37,2013-05-24 07:13:00,
2013-05-24 03:18:00,44.6,44.3,29.78,West,270,9.9,10.2,99,0.00,OVC,,0.00,WeatherDisplay:10.37,2013-05-24 07:18:00,
2013-05-24 03:23:00,44.6,44.3,29.78,SW,225,17.3,17.3,99,0.00,OVC,,0.00,WeatherDisplay:10.37,2013-05-24 07:23:00,
2013-05-24 03:28:00,44.4,44.1,29.78,SW,225,13.8,13.8,99,0.00,OVC,,0.00,WeatherDisplay:10.37,2013-05-24 07:28:00,
2013-05-24 03:33:00,44.4,44.1,29.78,WSW,248,11.5,11.5,99,0.00,OVC,,0.00,WeatherDisplay:10.37,2013-05-24 07:33:00,
2013-05-24 03:38:00,44.4,44.1,29.79,WSW,248,16.1,16.1,99,0.00,OVC,,0.00,WeatherDisplay:10.37,2013-05-24 07:38:00,
2013-05-24 03:43:00,44.4,44.1,29.79,West,270,12.7,12.7,99,0.00,OVC,,0.00,WeatherDisplay:10.37,2013-05-24 07:43:00,
2013-05-24 03:48:00,44.2,43.9,29.79,West,270,16.1,16.1,99,0.00,OVC,,0.00,WeatherDisplay:10.37,2013-05-24 07:48:00,
2013-05-24 03:53:00,44.2,43.9,29.79,West,270,10.4,10.4,99,0.00,OVC,,0.00,WeatherDisplay:10.37,2013-05-24 07:53:00,
2013-05-24 03:58:00,44.2,43.9,29.79,NW,315,13.0,13.0,99,0.00,OVC,,0.00,WeatherDisplay:10.37,2013-05-24 07:58:00,
2013-05-24 04:03:00,44.2,43.9,29.79,West,270,13.8,13.8,99,0.00,OVC,,0.00,WeatherDisplay:10.37,2013-05-24 08:03:00,
2013-05-24 04:08:00,44.2,43.9,29.79,West,270,10.4,10.4,99,0.00,OVC,,0.00,WeatherDisplay:10.37,2013-05-24 08:08:00,
2013-05-24 04:13:00,44.2,43.9,29.80,WSW,248,7.8,7.8,99,0.00,OVC,,0.00,WeatherDisplay:10.37,2013-05-24 08:13:00,
2013-05-24 04:18:00,44.2,43.9,29.80,SW,225,10.4,10.4,99,0.00,OVC,,0.00,WeatherDisplay:10.37,2013-05-24 08:18:00,
2013-05-24 04:23:00,44.2,43.9,29.80,West,270,8.8,8.8,99,0.01,RA,,0.01,WeatherDisplay:10.37,2013-05-24 08:23:00,
2013-05-24 04:28:00,44.2,43.9,29.81,NNW,338,10.9,10.9,99,0.01,RA,,0.01,WeatherDisplay:10.37,2013-05-24 08:28:00,
2013-05-24 04:33:00,44.1,43.8,29.81,SW,225,16.6,16.6,99,0.01,-RA,,0.01,WeatherDisplay:10.37,2013-05-24 08:33:00,
2013-05-24 04:38:00,43.9,43.6,29.82,West,270,10.4,10.4,99,0.01,-RA,,0.01,WeatherDisplay:10.37,2013-05-24 08:38:00,
2013-05-24 04:43:00,43.9,43.6,29.82,West,270,11.4,11.4,99,0.01,-RA,,0.01,WeatherDisplay:10.37,2013-05-24 08:43:00,
2013-05-24 04:48:00,43.9,43.6,29.82,WSW,248,13.8,13.8,99,0.01,-RA,,0.01,WeatherDisplay:10.37,2013-05-24 08:48:00,
2013-05-24 04:53:00,43.7,43.4,29.82,West,270,19.6,19.6,99,0.01,-RA,,0.01,WeatherDisplay:10.37,2013-05-24 08:53:00,
2013-05-24 04:58:00,43.7,43.4,29.82,WSW,248,14.0,14.0,99,0.01,-RA,,0.01,WeatherDisplay:10.37,2013-05-24 08:58:00,
2013-05-24 05:03:00,43.7,43.4,29.82,West,270,12.7,12.7,99,0.01,OVC,,0.01,WeatherDisplay:10.37,2013-05-24 09:03:00,
2013-05-24 05:08:00,43.5,43.2,29.82,SW,225,16.1,16.1,99,0.01,OVC,,0.01,WeatherDisplay:10.37,2013-05-24 09:08:00,
2013-05-24 05:13:00,43.5,43.2,29.82,West,270,13.8,13.8,99,0.01,OVC,,0.01,WeatherDisplay:10.37,2013-05-24 09:13:00,
2013-05-24 05:18:00,43.5,43.2,29.82,West,270,12.7,12.7,99,0.01,OVC,,0.01,WeatherDisplay:10.37,2013-05-24 09:18:00,
2013-05-24 05:23:00,43.5,43.0,29.82,WNW,292,11.5,11.5,98,0.00,OVC,,0.01,WeatherDisplay:10.37,2013-05-24 09:23:00,
2013-05-24 05:28:00,43.3,42.8,29.83,West,270,10.4,10.4,98,0.00,OVC,,0.01,WeatherDisplay:10.37,2013-05-24 09:28:00,
2013-05-24 05:33:00,43.3,43.0,29.83,West,270,11.5,11.5,99,0.00,-RA,,0.01,WeatherDisplay:10.37,2013-05-24 09:33:00,
2013-05-24 05:38:00,43.2,42.9,29.83,West,270,13.8,14.4,99,0.00,-RA,,0.01,WeatherDisplay:10.37,2013-05-24 09:38:00,
2013-05-24 05:43:00,43.0,42.7,29.83,West,270,10.4,11.2,99,0.00,-RA,,0.01,WeatherDisplay:10.37,2013-05-24 09:43:00,
2013-05-24 05:48:00,42.8,42.5,29.83,West,270,10.4,10.4,99,0.00,-RA,,0.01,WeatherDisplay:10.37,2013-05-24 09:48:00,
2013-05-24 05:53:00,42.8,42.5,29.84,West,270,8.1,8.6,99,0.00,-RA,,0.01,WeatherDisplay:10.37,2013-05-24 09:53:00,
2013-05-24 05:58:00,42.6,42.3,29.84,WSW,248,10.4,10.4,99,0.00,-RA,,0.01,WeatherDisplay:10.37,2013-05-24 09:58:00,
2013-05-24 06:03:00,42.4,42.1,29.85,WSW,248,12.7,12.7,99,0.00,OVC,,0.01,WeatherDisplay:10.37,2013-05-24 10:03:00,
2013-05-24 06:08:00,42.4,42.1,29.85,WSW,248,8.8,9.0,99,0.00,OVC,,0.01,WeatherDisplay:10.37,2013-05-24 10:08:00,
2013-05-24 06:13:00,42.3,42.0,29.85,West,270,13.8,13.8,99,0.00,OVC,,0.01,WeatherDisplay:10.37,2013-05-24 10:13:00,
2013-05-24 06:18:00,42.3,42.0,29.86,West,270,15.0,15.0,99,0.00,OVC,,0.01,WeatherDisplay:10.37,2013-05-24 10:18:00,
2013-05-24 06:23:00,42.1,41.8,29.86,West,270,12.7,12.7,99,0.00,OVC,,0.01,WeatherDisplay:10.37,2013-05-24 10:23:00,
2013-05-24 06:28:00,42.1,41.8,29.86,WSW,248,15.0,15.0,99,0.00,OVC,,0.01,WeatherDisplay:10.37,2013-05-24 10:28:00,
2013-05-24 06:33:00,41.9,41.6,29.86,SW,225,16.1,16.1,99,0.00,OVC,,0.01,WeatherDisplay:10.37,2013-05-24 10:33:00,
2013-05-24 06:38:00,41.9,41.6,29.87,WNW,292,9.2,9.2,99,0.00,OVC,,0.01,WeatherDisplay:10.37,2013-05-24 10:38:00,
2013-05-24 06:43:00,41.9,41.6,29.87,West,270,11.5,11.5,99,0.00,OVC,,0.01,WeatherDisplay:10.37,2013-05-24 10:43:00,
2013-05-24 06:48:00,42.1,41.8,29.87,NW,315,10.4,10.4,99,0.00,OVC,,0.01,WeatherDisplay:10.37,2013-05-24 10:48:00,
2013-05-24 06:53:00,42.1,41.8,29.88,West,270,6.9,8.3,99,0.00,OVC,,0.01,WeatherDisplay:10.37,2013-05-24 10:53:00,
2013-05-24 06:58:00,42.1,41.8,29.88,WNW,292,15.0,15.0,99,0.00,OVC,,0.01,WeatherDisplay:10.37,2013-05-24 10:58:00,
2013-05-24 07:03:00,42.1,41.8,29.89,West,270,12.7,12.7,99,0.00,OVC,,0.01,WeatherDisplay:10.37,2013-05-24 11:03:00,
2013-05-24 07:08:00,41.9,41.6,29.89,WSW,248,16.1,16.1,99,0.00,OVC,,0.01,WeatherDisplay:10.37,2013-05-24 11:08:00,
2013-05-24 07:13:00,41.9,41.6,29.89,West,270,9.2,9.2,99,0.00,OVC,,0.01,WeatherDisplay:10.37,2013-05-24 11:13:00,
2013-05-24 07:18:00,41.9,41.6,29.90,WSW,248,9.2,9.2,99,0.00,OVC,,0.01,WeatherDisplay:10.37,2013-05-24 11:18:00,
2013-05-24 07:23:00,41.9,41.6,29.90,West,270,12.4,12.4,99,0.00,OVC,,0.01,WeatherDisplay:10.37,2013-05-24 11:23:00,
2013-05-24 07:28:00,41.7,41.4,29.90,West,270,13.8,13.8,99,0.00,OVC,,0.01,WeatherDisplay:10.37,2013-05-24 11:28:00,
2013-05-24 07:33:00,41.7,41.4,29.90,WSW,248,16.1,16.1,99,0.00,OVC,,0.01,WeatherDisplay:10.37,2013-05-24 11:33:00,
2013-05-24 07:38:00,41.7,41.4,29.90,West,270,9.2,9.2,99,0.00,OVC,,0.01,WeatherDisplay:10.37,2013-05-24 11:38:00,
2013-05-24 07:43:00,41.7,41.4,29.90,West,270,11.5,11.5,99,0.00,OVC,,0.01,WeatherDisplay:10.37,2013-05-24 11:43:00,
2013-05-24 07:48:00,41.9,41.6,29.90,NE,45,13.8,13.8,99,0.00,OVC,,0.01,WeatherDisplay:10.37,2013-05-24 11:48:00,
2013-05-24 07:53:00,41.9,41.4,29.91,WSW,248,11.5,11.5,98,0.00,OVC,,0.01,WeatherDisplay:10.37,2013-05-24 11:53:00,
2013-05-24 07:58:00,42.1,41.8,29.91,West,270,10.4,10.4,99,0.00,OVC,,0.01,WeatherDisplay:10.37,2013-05-24 11:58:00,
2013-05-24 08:03:00,42.1,41.3,29.91,WNW,292,16.1,16.1,97,0.00,OVC,,0.01,WeatherDisplay:10.37,2013-05-24 12:03:00,
2013-05-24 08:08:00,41.9,41.1,29.91,North,360,11.5,11.5,97,0.00,OVC,,0.01,WeatherDisplay:10.37,2013-05-24 12:08:00,
2013-05-24 08:13:00,41.9,41.1,29.91,West,270,15.0,15.0,97,0.00,OVC,,0.01,WeatherDisplay:10.37,2013-05-24 12:13:00,
2013-05-24 08:18:00,42.1,41.6,29.92,West,270,12.7,12.7,98,0.00,OVC,,0.01,WeatherDisplay:10.37,2013-05-24 12:18:00,
2013-05-24 08:23:00,42.1,41.0,29.92,WSW,248,15.0,15.0,96,0.00,OVC,,0.01,WeatherDisplay:10.37,2013-05-24 12:23:00,
2013-05-24 08:28:00,41.9,40.8,29.92,West,270,12.7,12.7,96,0.00,OVC,,0.01,WeatherDisplay:10.37,2013-05-24 12:28:00,
2013-05-24 08:33:00,41.9,41.1,29.92,West,270,13.8,13.8,97,0.00,-RA,,0.01,WeatherDisplay:10.37,2013-05-24 12:33:00,
2013-05-24 08:38:00,41.7,40.6,29.93,WNW,292,13.8,13.8,96,0.00,-RA,,0.01,WeatherDisplay:10.37,2013-05-24 12:38:00,
2013-05-24 08:43:00,41.7,40.9,29.93,West,270,10.4,10.4,97,0.00,-RA,,0.01,WeatherDisplay:10.37,2013-05-24 12:43:00,
2013-05-24 08:48:00,41.7,40.9,29.93,West,270,10.4,10.4,97,0.00,-RA,,0.01,WeatherDisplay:10.37,2013-05-24 12:48:00,
2013-05-24 08:53:00,41.5,40.4,29.94,NNE,22,9.4,9.4,96,0.00,-RA,,0.01,WeatherDisplay:10.37,2013-05-24 12:53:00,
2013-05-24 08:58:00,41.5,40.7,29.94,NW,315,8.1,8.1,97,0.00,-RA,,0.01,WeatherDisplay:10.37,2013-05-24 12:58:00,
2013-05-24 09:03:00,41.5,40.7,29.94,NNE,22,15.0,15.0,97,0.00,-RA,,0.01,WeatherDisplay:10.37,2013-05-24 13:03:00,
2013-05-24 09:08:00,41.5,40.4,29.94,NE,45,16.1,16.1,96,0.00,-RA,,0.01,WeatherDisplay:10.37,2013-05-24 13:08:00,
2013-05-24 09:13:00,41.4,40.3,29.95,WNW,292,13.0,13.0,96,0.00,-RA,,0.01,WeatherDisplay:10.37,2013-05-24 13:13:00,
2013-05-24 09:18:00,41.4,40.3,29.95,East,90,15.0,15.0,96,0.00,-RA,,0.01,WeatherDisplay:10.37,2013-05-24 13:18:00,
2013-05-24 09:23:00,41.4,40.3,29.95,NW,315,11.5,11.5,96,0.00,-RA,,0.01,WeatherDisplay:10.37,2013-05-24 13:23:00,
2013-05-24 09:28:00,41.4,40.3,29.97,NW,315,10.4,10.4,96,0.00,-RA,,0.01,WeatherDisplay:10.37,2013-05-24 13:28:00,
2013-05-24 09:33:00,41.2,40.1,29.97,West,270,9.9,9.9,96,0.00,OVC,,0.01,WeatherDisplay:10.37,2013-05-24 13:33:00,
2013-05-24 09:38:00,41.4,40.1,29.97,WSW,248,12.7,12.7,95,0.00,OVC,,0.01,WeatherDisplay:10.37,2013-05-24 13:38:00,
2013-05-24 09:43:00,41.4,39.8,29.97,West,270,16.1,16.1,94,0.00,OVC,,0.01,WeatherDisplay:10.37,2013-05-24 13:43:00,
2013-05-24 09:48:00,41.7,40.1,29.97,West,270,12.7,12.7,94,0.00,OVC,,0.01,WeatherDisplay:10.37,2013-05-24 13:48:00,
2013-05-24 09:53:00,42.1,40.8,29.97,WNW,292,9.2,9.2,95,0.00,OVC,,0.01,WeatherDisplay:10.37,2013-05-24 13:53:00,
2013-05-24 09:58:00,42.6,41.5,29.97,NE,45,6.9,6.9,96,0.00,OVC,,0.01,WeatherDisplay:10.37,2013-05-24 13:58:00,
2013-05-24 10:03:00,42.8,40.9,29.97,NW,315,10.4,10.4,93,0.00,OVC,,0.01,WeatherDisplay:10.37,2013-05-24 14:03:00,
2013-05-24 10:08:00,43.0,41.1,29.97,West,270,11.5,11.5,93,0.00,OVC,,0.01,WeatherDisplay:10.37,2013-05-24 14:08:00,
2013-05-24 10:13:00,43.0,40.8,29.97,NNE,22,11.4,11.4,92,0.00,OVC,,0.01,WeatherDisplay:10.37,2013-05-24 14:13:00,
2013-05-24 10:18:00,42.8,40.4,29.97,NW,315,11.5,11.5,91,0.00,OVC,,0.01,WeatherDisplay:10.37,2013-05-24 14:18:00,
2013-05-24 10:23:00,42.8,40.4,29.97,North,360,11.5,11.5,91,0.00,OVC,,0.01,WeatherDisplay:10.37,2013-05-24 14:23:00,
2013-05-24 10:28:00,43.2,40.8,29.97,NW,315,10.4,10.4,91,0.00,OVC,,0.01,WeatherDisplay:10.37,2013-05-24 14:28:00,
2013-05-24 10:33:00,44.1,41.4,29.97,WSW,248,11.5,11.5,90,0.00,OVC,,0.01,WeatherDisplay:10.37,2013-05-24 14:33:00,
2013-05-24 10:38:00,44.6,41.3,29.97,West,270,13.8,13.8,88,0.00,OVC,,0.01,WeatherDisplay:10.37,2013-05-24 14:38:00,
2013-05-24 10:43:00,44.4,40.8,29.97,WSW,248,16.1,16.1,87,0.00,OVC,,0.01,WeatherDisplay:10.37,2013-05-24 14:43:00,
2013-05-24 10:48:00,44.2,40.9,29.97,WNW,292,14.5,14.5,88,0.00,OVC,,0.01,WeatherDisplay:10.37,2013-05-24 14:48:00,
2013-05-24 10:53:00,44.6,41.3,29.97,WSW,248,13.8,13.8,88,0.00,OVC,,0.01,WeatherDisplay:10.37,2013-05-24 14:53:00,
2013-05-24 10:58:00,44.8,41.5,29.97,SSW,202,13.8,13.8,88,0.00,OVC,,0.01,WeatherDisplay:10.37,2013-05-24 14:58:00,
2013-05-24 11:03:00,45.3,42.0,29.98,West,270,15.0,15.0,88,0.00,OVC,,0.01,WeatherDisplay:10.37,2013-05-24 15:03:00,
2013-05-24 11:08:00,45.3,41.4,29.98,WSW,248,13.8,13.8,86,0.00,OVC,,0.01,WeatherDisplay:10.37,2013-05-24 15:08:00,
2013-05-24 11:13:00,45.3,41.1,29.98,West,270,14.5,14.5,85,0.00,OVC,,0.01,WeatherDisplay:10.37,2013-05-24 15:13:00,
2013-05-24 11:18:00,45.1,39.9,29.98,WSW,248,17.3,17.3,82,0.00,OVC,,0.01,WeatherDisplay:10.37,2013-05-24 15:18:00,
2013-05-24 11:23:00,45.3,40.1,29.98,WSW,248,12.7,12.7,82,0.00,OVC,,0.01,WeatherDisplay:10.37,2013-05-24 15:23:00,
2013-05-24 11:28:00,45.5,40.0,29.98,West,270,17.3,17.3,81,0.00,OVC,,0.01,WeatherDisplay:10.37,2013-05-24 15:28:00,
2013-05-24 11:33:00,45.7,39.9,29.98,West,270,16.1,16.1,80,0.00,OVC,,0.01,WeatherDisplay:10.37,2013-05-24 15:33:00,
2013-05-24 11:38:00,45.9,39.8,29.99,West,270,14.0,14.0,79,0.00,OVC,,0.01,WeatherDisplay:10.37,2013-05-24 15:38:00,
2013-05-24 11:43:00,45.5,40.3,29.99,WSW,248,17.6,17.6,82,0.00,OVC,,0.01,WeatherDisplay:10.37,2013-05-24 15:43:00,
2013-05-24 11:48:00,45.3,40.1,29.99,WSW,248,21.7,21.7,82,0.00,OVC,,0.01,WeatherDisplay:10.37,2013-05-24 15:48:00,
2013-05-24 11:53:00,45.1,39.6,29.99,SW,225,18.4,18.4,81,0.00,OVC,,0.01,WeatherDisplay:10.37,2013-05-24 15:53:00,
2013-05-24 11:58:00,45.3,39.8,29.99,West,270,12.7,12.7,81,0.00,OVC,,0.01,WeatherDisplay:10.37,2013-05-24 15:58:00,
2013-05-24 12:03:00,45.7,40.5,30.00,West,270,17.3,17.3,82,0.00,OVC,,0.01,WeatherDisplay:10.37,2013-05-24 16:03:00,
2013-05-24 12:08:00,45.9,40.7,30.00,West,270,11.5,11.5,82,0.00,OVC,,0.01,WeatherDisplay:10.37,2013-05-24 16:08:00,
2013-05-24 12:13:00,45.9,39.8,30.00,West,270,16.1,16.1,79,0.00,OVC,,0.01,WeatherDisplay:10.37,2013-05-24 16:13:00,
2013-05-24 12:18:00,45.9,39.8,30.00,West,270,16.1,16.1,79,0.00,OVC,,0.01,WeatherDisplay:10.37,2013-05-24 16:18:00,
2013-05-24 12:23:00,46.0,39.9,30.00,West,270,15.0,15.0,79,0.00,OVC,,0.01,WeatherDisplay:10.37,2013-05-24 16:23:00,
2013-05-24 12:28:00,45.7,39.6,30.00,West,270,12.7,12.7,79,0.00,OVC,,0.01,WeatherDisplay:10.37,2013-05-24 16:28:00,
2013-05-24 12:33:00,45.7,39.6,30.00,WSW,248,14.5,14.5,79,0.00,OVC,,0.01,WeatherDisplay:10.37,2013-05-24 16:33:00,
2013-05-24 12:38:00,46.0,39.5,30.00,West,270,13.8,13.8,78,0.00,OVC,,0.01,WeatherDisplay:10.37,2013-05-24 16:38:00,
2013-05-24 12:43:00,45.7,39.2,30.00,West,270,13.5,13.5,78,0.00,OVC,,0.01,WeatherDisplay:10.37,2013-05-24 16:43:00,
2013-05-24 12:48:00,45.7,38.9,30.00,West,270,11.9,11.9,77,0.00,OVC,,0.01,WeatherDisplay:10.37,2013-05-24 16:48:00,
2013-05-24 12:53:00,45.3,38.5,30.01,West,270,21.9,21.9,77,0.00,OVC,,0.01,WeatherDisplay:10.37,2013-05-24 16:53:00,
2013-05-24 12:58:00,45.5,38.7,30.01,WSW,248,14.5,14.5,77,0.00,OVC,,0.01,WeatherDisplay:10.37,2013-05-24 16:58:00,
2013-05-24 13:03:00,45.7,38.9,30.01,West,270,18.4,18.4,77,0.00,OVC,,0.01,WeatherDisplay:10.37,2013-05-24 17:03:00,
2013-05-24 13:08:00,46.8,39.6,30.01,WNW,292,18.4,18.4,76,0.00,OVC,,0.01,WeatherDisplay:10.37,2013-05-24 17:08:00,
2013-05-24 13:13:00,46.4,39.2,30.01,WSW,248,16.0,16.0,76,0.00,OVC,,0.01,WeatherDisplay:10.37,2013-05-24 17:13:00,
2013-05-24 13:18:00,45.9,39.1,30.01,West,270,18.4,18.4,77,0.00,OVC,,0.01,WeatherDisplay:10.37,2013-05-24 17:18:00,
2013-05-24 13:23:00,45.5,39.0,30.01,WSW,248,17.3,17.3,78,0.00,OVC,,0.01,WeatherDisplay:10.37,2013-05-24 17:23:00,
2013-05-24 13:28:00,46.0,39.2,30.02,WSW,248,13.8,13.8,77,0.00,OVC,,0.01,WeatherDisplay:10.37,2013-05-24 17:28:00,
2013-05-24 13:33:00,46.2,38.7,30.02,West,270,18.4,18.4,75,0.00,OVC,,0.01,WeatherDisplay:10.37,2013-05-24 17:33:00,
2013-05-24 13:38:00,45.7,37.9,30.02,SW,225,20.7,20.7,74,0.00,OVC,,0.01,WeatherDisplay:10.37,2013-05-24 17:38:00,
2013-05-24 13:43:00,45.9,38.4,30.02,NW,315,15.0,15.0,75,0.00,OVC,,0.01,WeatherDisplay:10.37,2013-05-24 17:43:00,
2013-05-24 13:48:00,45.9,38.4,30.02,NW,315,13.8,13.8,75,0.00,OVC,,0.01,WeatherDisplay:10.37,2013-05-24 17:48:00,
2013-05-24 13:53:00,46.4,38.6,30.02,West,270,9.2,9.2,74,0.00,OVC,,0.01,WeatherDisplay:10.37,2013-05-24 17:53:00,
2013-05-24 13:58:00,46.4,38.6,30.02,West,270,9.2,9.2,74,0.00,OVC,,0.01,WeatherDisplay:10.37,2013-05-24 17:58:00,
2013-05-24 14:03:00,46.6,37.7,30.02,West,270,16.6,16.7,71,0.00,OVC,,0.01,WeatherDisplay:10.37,2013-05-24 18:03:00,
2013-05-24 14:08:00,46.8,37.9,30.02,West,270,17.3,17.3,71,0.00,OVC,,0.01,WeatherDisplay:10.37,2013-05-24 18:08:00,
2013-05-24 14:13:00,46.8,36.8,30.02,WNW,292,13.8,13.8,68,0.00,OVC,,0.01,WeatherDisplay:10.37,2013-05-24 18:13:00,
2013-05-24 14:18:00,48.2,38.5,30.02,WSW,248,7.8,7.8,69,0.00,OVC,,0.01,WeatherDisplay:10.37,2013-05-24 18:18:00,
2013-05-24 14:23:00,47.8,37.4,30.02,WNW,292,16.1,16.1,67,0.00,OVC,,0.01,WeatherDisplay:10.37,2013-05-24 18:23:00,
2013-05-24 14:28:00,47.7,37.7,30.02,SW,225,15.0,15.0,68,0.00,OVC,,0.01,WeatherDisplay:10.37,2013-05-24 18:28:00,
2013-05-24 14:33:00,47.1,38.2,30.02,SW,225,15.0,15.0,71,0.00,OVC,,0.01,WeatherDisplay:10.37,2013-05-24 18:33:00,
2013-05-24 14:38:00,47.7,38.4,30.02,SW,225,12.7,12.7,70,0.00,OVC,,0.01,WeatherDisplay:10.37,2013-05-24 18:38:00,
2013-05-24 14:43:00,47.7,36.9,30.02,West,270,17.3,17.3,66,0.00,OVC,,0.01,WeatherDisplay:10.37,2013-05-24 18:43:00,
2013-05-24 14:48:00,47.7,37.7,30.02,WSW,248,11.9,13.9,68,0.00,OVC,,0.01,WeatherDisplay:10.37,2013-05-24 18:48:00,
2013-05-24 14:53:00,47.7,38.0,30.03,WNW,292,18.4,18.4,69,0.00,OVC,,0.01,WeatherDisplay:10.37,2013-05-24 18:53:00,
2013-05-24 14:58:00,48.4,37.9,30.03,West,270,15.0,15.4,67,0.00,OVC,,0.01,WeatherDisplay:10.37,2013-05-24 18:58:00,
2013-05-24 15:03:00,47.8,37.7,30.03,WSW,248,18.6,18.6,68,0.00,OVC,,0.01,WeatherDisplay:10.37,2013-05-24 19:03:00,
2013-05-24 15:08:00,47.7,37.3,30.03,NNW,338,25.3,25.3,67,0.00,OVC,,0.01,WeatherDisplay:10.37,2013-05-24 19:08:00,
2013-05-24 15:13:00,47.8,37.0,30.03,WSW,248,17.6,17.6,66,0.00,OVC,,0.01,WeatherDisplay:10.37,2013-05-24 19:13:00,
2013-05-24 15:18:00,49.3,37.6,30.03,West,270,17.3,17.3,64,0.00,OVC,,0.01,WeatherDisplay:10.37,2013-05-24 19:18:00,
2013-05-24 15:23:00,48.2,36.2,30.03,WSW,248,17.3,17.3,63,0.00,OVC,,0.01,WeatherDisplay:10.37,2013-05-24 19:23:00,
2013-05-24 15:28:00,47.7,36.5,30.03,WSW,248,21.9,21.9,65,0.00,OVC,,0.01,WeatherDisplay:10.37,2013-05-24 19:28:00,
2013-05-24 15:33:00,47.7,36.9,30.03,West,270,13.8,13.8,66,0.00,OVC,,0.01,WeatherDisplay:10.37,2013-05-24 19:33:00,
2013-05-24 15:38:00,47.7,36.5,30.04,West,270,17.3,17.3,65,0.00,OVC,,0.01,WeatherDisplay:10.37,2013-05-24 19:38:00,
2013-05-24 15:43:00,47.5,36.7,30.04,NW,315,14.5,14.5,66,0.00,OVC,,0.01,WeatherDisplay:10.37,2013-05-24 19:43:00,
2013-05-24 15:48:00,47.5,37.5,30.04,SW,225,19.6,19.6,68,0.00,OVC,,0.01,WeatherDisplay:10.37,2013-05-24 19:48:00,
2013-05-24 15:53:00,47.1,36.7,30.04,NW,315,17.3,17.3,67,0.00,OVC,,0.01,WeatherDisplay:10.37,2013-05-24 19:53:00,
2013-05-24 15:58:00,47.3,36.1,30.04,WSW,248,17.3,17.3,65,0.00,OVC,,0.01,WeatherDisplay:10.37,2013-05-24 19:58:00,
2013-05-24 16:03:00,47.1,36.3,30.04,West,270,15.0,15.0,66,0.00,OVC,,0.01,WeatherDisplay:10.37,2013-05-24 20:03:00,
2013-05-24 16:08:00,46.8,36.8,30.04,WSW,248,19.6,19.6,68,0.00,OVC,,0.01,WeatherDisplay:10.37,2013-05-24 20:08:00,
2013-05-24 16:13:00,47.7,36.9,30.04,SW,225,17.3,17.3,66,0.00,OVC,,0.01,WeatherDisplay:10.37,2013-05-24 20:13:00,
2013-05-24 16:18:00,47.7,36.1,30.04,WSW,248,16.1,17.4,64,0.00,OVC,,0.01,WeatherDisplay:10.37,2013-05-24 20:18:00,
2013-05-24 16:23:00,47.3,35.7,30.04,WSW,248,19.6,19.6,64,0.00,OVC,,0.01,WeatherDisplay:10.37,2013-05-24 20:23:00,
2013-05-24 16:28:00,47.3,36.1,30.04,West,270,16.1,16.1,65,0.00,OVC,,0.01,WeatherDisplay:10.37,2013-05-24 20:28:00,
2013-05-24 16:33:00,47.1,35.9,30.04,West,270,12.7,12.7,65,0.00,OVC,,0.01,WeatherDisplay:10.37,2013-05-24 20:33:00,
2013-05-24 16:38:00,47.7,35.7,30.04,SW,225,18.6,18.6,63,0.00,OVC,,0.01,WeatherDisplay:10.37,2013-05-24 20:38:00,
2013-05-24 16:43:00,47.7,36.1,30.04,SW,225,18.1,18.1,64,0.00,OVC,,0.01,WeatherDisplay:10.37,2013-05-24 20:43:00,
2013-05-24 16:48:00,47.1,35.9,30.04,West,270,17.6,17.6,65,0.00,OVC,,0.01,WeatherDisplay:10.37,2013-05-24 20:48:00,
2013-05-24 16:53:00,46.8,36.0,30.05,West,270,15.0,15.0,66,0.00,OVC,,0.01,WeatherDisplay:10.37,2013-05-24 20:53:00,
2013-05-24 16:58:00,46.6,35.8,30.05,SW,225,13.8,13.8,66,0.00,OVC,,0.01,WeatherDisplay:10.37,2013-05-24 20:58:00,
2013-05-24 17:03:00,47.3,35.7,30.04,WSW,248,14.0,14.0,64,0.00,OVC,,0.01,WeatherDisplay:10.37,2013-05-24 21:03:00,
2013-05-24 17:08:00,47.8,35.0,30.04,WNW,292,17.3,17.3,61,0.00,OVC,,0.01,WeatherDisplay:10.37,2013-05-24 21:08:00,
2013-05-24 17:13:00,48.0,34.8,30.04,WSW,248,15.0,15.0,60,0.00,OVC,,0.01,WeatherDisplay:10.37,2013-05-24 21:13:00,
2013-05-24 17:18:00,48.2,35.4,30.05,West,270,11.5,11.5,61,0.00,OVC,,0.01,WeatherDisplay:10.37,2013-05-24 21:18:00,
2013-05-24 17:23:00,47.8,35.4,30.05,West,270,16.1,16.1,62,0.00,OVC,,0.01,WeatherDisplay:10.37,2013-05-24 21:23:00,
2013-05-24 17:28:00,48.0,34.3,30.06,NNW,338,12.7,12.7,59,0.00,OVC,,0.01,WeatherDisplay:10.37,2013-05-24 21:28:00,
2013-05-24 17:33:00,47.3,34.5,30.06,West,270,13.8,13.8,61,0.00,OVC,,0.01,WeatherDisplay:10.37,2013-05-24 21:33:00,
2013-05-24 17:38:00,47.5,34.3,30.06,WNW,292,15.0,15.0,60,0.00,OVC,,0.01,WeatherDisplay:10.37,2013-05-24 21:38:00,
2013-05-24 17:43:00,46.9,33.7,30.06,WNW,292,15.5,15.5,60,0.00,OVC,,0.01,WeatherDisplay:10.37,2013-05-24 21:43:00,
2013-05-24 17:48:00,46.9,34.1,30.06,WNW,292,15.0,15.0,61,0.00,OVC,,0.01,WeatherDisplay:10.37,2013-05-24 21:48:00,
2013-05-24 17:53:00,47.1,34.7,30.06,West,270,12.7,12.7,62,0.00,OVC,,0.01,WeatherDisplay:10.37,2013-05-24 21:53:00,
2013-05-24 17:58:00,46.9,35.0,30.06,NNE,22,9.2,9.2,63,0.00,OVC,,0.01,WeatherDisplay:10.37,2013-05-24 21:58:00,
2013-05-24 18:03:00,46.6,35.1,30.07,WSW,248,17.6,17.6,64,0.00,OVC,,0.01,WeatherDisplay:10.37,2013-05-24 22:03:00,
2013-05-24 18:08:00,46.2,34.7,30.07,North,360,15.0,15.0,64,0.00,OVC,,0.01,WeatherDisplay:10.37,2013-05-24 22:08:00,
2013-05-24 18:13:00,46.4,34.9,30.07,WSW,248,16.1,16.1,64,0.00,OVC,,0.01,WeatherDisplay:10.37,2013-05-24 22:13:00,
2013-05-24 18:18:00,46.4,35.3,30.07,West,270,12.4,12.4,65,0.00,OVC,,0.01,WeatherDisplay:10.37,2013-05-24 22:18:00,
2013-05-24 18:23:00,46.6,34.7,30.07,West,270,16.1,16.1,63,0.00,OVC,,0.01,WeatherDisplay:10.37,2013-05-24 22:23:00,
2013-05-24 18:28:00,46.6,34.3,30.06,NE,45,13.8,13.8,62,0.00,OVC,,0.01,WeatherDisplay:10.37,2013-05-24 22:28:00,
2013-05-24 18:33:00,46.8,34.9,30.06,West,270,10.4,10.4,63,0.00,OVC,,0.01,WeatherDisplay:10.37,2013-05-24 22:33:00,
2013-05-24 18:38:00,46.4,34.5,30.07,WNW,292,12.7,12.7,63,0.00,OVC,,0.01,WeatherDisplay:10.37,2013-05-24 22:38:00,
2013-05-24 18:43:00,46.0,34.1,30.07,West,270,11.5,11.5,63,0.00,OVC,,0.01,WeatherDisplay:10.37,2013-05-24 22:43:00,
2013-05-24 18:48:00,45.9,34.4,30.07,West,270,13.0,13.0,64,0.00,OVC,,0.01,WeatherDisplay:10.37,2013-05-24 22:48:00,
2013-05-24 18:53:00,45.9,34.8,30.07,West,270,12.7,12.7,65,0.00,OVC,,0.01,WeatherDisplay:10.37,2013-05-24 22:53:00,
2013-05-24 18:58:00,45.7,34.2,30.07,NW,315,13.8,13.8,64,0.00,OVC,,0.01,WeatherDisplay:10.37,2013-05-24 22:58:00,
2013-05-24 19:03:00,45.7,34.6,30.07,West,270,10.4,10.4,65,0.00,OVC,,0.01,WeatherDisplay:10.37,2013-05-24 23:03:00,
2013-05-24 19:08:00,45.5,34.4,30.07,WNW,292,11.5,11.5,65,0.00,OVC,,0.01,WeatherDisplay:10.37,2013-05-24 23:08:00,
2013-05-24 19:13:00,45.5,34.8,30.07,West,270,14.0,14.0,66,0.00,OVC,,0.01,WeatherDisplay:10.37,2013-05-24 23:13:00,
2013-05-24 19:18:00,45.3,35.0,30.07,NNW,338,12.7,12.7,67,0.00,OVC,,0.01,WeatherDisplay:10.37,2013-05-24 23:18:00,
2013-05-24 19:23:00,45.3,35.0,30.07,West,270,10.4,10.9,67,0.00,OVC,,0.01,WeatherDisplay:10.37,2013-05-24 23:23:00,
2013-05-24 19:28:00,45.1,34.4,30.08,West,270,16.1,16.1,66,0.00,OVC,,0.01,WeatherDisplay:10.37,2013-05-24 23:28:00,
2013-05-24 19:33:00,45.1,34.8,30.08,WSW,248,9.2,9.2,67,0.00,OVC,,0.01,WeatherDisplay:10.37,2013-05-24 23:33:00,
2013-05-24 19:38:00,45.0,34.7,30.08,SW,225,16.6,16.6,67,0.00,OVC,,0.01,WeatherDisplay:10.37,2013-05-24 23:38:00,
2013-05-24 19:43:00,44.6,33.9,30.08,WNW,292,18.4,18.4,66,0.00,OVC,,0.01,WeatherDisplay:10.37,2013-05-24 23:43:00,
2013-05-24 19:48:00,44.2,33.6,30.08,WSW,248,19.6,19.6,66,0.00,OVC,,0.01,WeatherDisplay:10.37,2013-05-24 23:48:00,
2013-05-24 19:53:00,44.2,33.2,30.08,West,270,12.7,12.7,65,0.00,OVC,,0.01,WeatherDisplay:10.37,2013-05-24 23:53:00,
2013-05-24 19:58:00,44.2,33.2,30.08,West,270,10.4,10.4,65,0.00,OVC,,0.01,WeatherDisplay:10.37,2013-05-24 23:58:00,
2013-05-24 20:03:00,44.2,33.2,30.09,SW,225,17.1,17.1,65,0.00,OVC,,0.01,WeatherDisplay:10.37,2013-05-25 00:03:00,
2013-05-24 20:08:00,44.2,32.8,30.09,WNW,292,12.7,12.7,64,0.00,OVC,,0.01,WeatherDisplay:10.37,2013-05-25 00:08:00,
2013-05-24 20:13:00,44.2,33.6,30.09,North,360,11.5,11.5,66,0.00,OVC,,0.01,WeatherDisplay:10.37,2013-05-25 00:13:00,
2013-05-24 20:18:00,44.1,33.8,30.09,West,270,10.4,10.4,67,0.00,OVC,,0.01,WeatherDisplay:10.37,2013-05-25 00:18:00,
2013-05-24 20:23:00,43.7,33.5,30.09,WNW,292,17.3,17.3,67,0.00,OVC,,0.01,WeatherDisplay:10.37,2013-05-25 00:23:00,
2013-05-24 20:28:00,43.5,32.9,30.09,SW,225,12.7,12.7,66,0.00,OVC,,0.01,WeatherDisplay:10.37,2013-05-25 00:28:00,
2013-05-24 20:33:00,43.3,32.3,30.09,WSW,248,13.8,13.8,65,0.00,OVC,,0.01,WeatherDisplay:10.37,2013-05-25 00:33:00,
2013-05-24 20:38:00,43.3,31.9,30.10,WSW,248,13.8,13.8,64,0.00,OVC,,0.01,WeatherDisplay:10.37,2013-05-25 00:38:00,
2013-05-24 20:43:00,43.2,31.8,30.10,West,270,12.7,12.7,64,0.00,OVC,,0.01,WeatherDisplay:10.37,2013-05-25 00:43:00,
2013-05-24 20:48:00,43.2,32.2,30.10,West,270,10.4,10.4,65,0.00,OVC,,0.01,WeatherDisplay:10.37,2013-05-25 00:48:00,
2013-05-24 20:53:00,43.2,33.0,30.09,NW,315,11.4,11.4,67,0.00,OVC,,0.01,WeatherDisplay:10.37,2013-05-25 00:53:00,
2013-05-24 20:58:00,43.0,32.4,30.09,WSW,248,13.5,13.5,66,0.00,OVC,,0.01,WeatherDisplay:10.37,2013-05-25 00:58:00,
2013-05-24 21:03:00,43.0,32.8,30.09,WSW,248,9.4,9.4,67,0.00,OVC,,0.01,WeatherDisplay:10.37,2013-05-25 01:03:00,
2013-05-24 21:08:00,43.0,32.4,30.09,West,270,14.0,14.0,66,0.00,OVC,,0.01,WeatherDisplay:10.37,2013-05-25 01:08:00,
2013-05-24 21:13:00,43.0,32.8,30.09,West,270,10.4,10.4,67,0.00,OVC,,0.01,WeatherDisplay:10.37,2013-05-25 01:13:00,
2013-05-24 21:18:00,42.8,32.6,30.09,WSW,248,6.9,6.9,67,0.00,OVC,,0.01,WeatherDisplay:10.37,2013-05-25 01:18:00,
2013-05-24 21:23:00,42.8,33.0,30.09,WSW,248,10.4,10.4,68,0.00,OVC,,0.01,WeatherDisplay:10.37,2013-05-25 01:23:00,
2013-05-24 21:28:00,42.6,33.1,30.09,West,270,6.9,6.9,69,0.00,OVC,,0.01,WeatherDisplay:10.37,2013-05-25 01:28:00,
2013-05-24 21:33:00,42.6,33.1,30.09,WSW,248,6.9,6.9,69,0.00,OVC,,0.01,WeatherDisplay:10.37,2013-05-25 01:33:00,
2013-05-24 21:38:00,42.6,33.1,30.10,WSW,248,6.9,6.9,69,0.00,OVC,,0.01,WeatherDisplay:10.37,2013-05-25 01:38:00,
2013-05-24 21:43:00,42.4,32.9,30.10,SW,225,10.4,10.4,69,0.00,OVC,,0.01,WeatherDisplay:10.37,2013-05-25 01:43:00,
2013-05-24 21:48:00,42.4,32.9,30.10,West,270,8.1,8.1,69,0.00,OVC,,0.01,WeatherDisplay:10.37,2013-05-25 01:48:00,
2013-05-24 21:53:00,42.4,33.3,30.10,West,270,5.8,5.8,70,0.00,OVC,,0.01,WeatherDisplay:10.37,2013-05-25 01:53:00,
2013-05-24 21:58:00,42.3,32.8,30.10,West,270,9.2,9.2,69,0.00,OVC,,0.01,WeatherDisplay:10.37,2013-05-25 01:58:00,
2013-05-24 22:03:00,42.3,33.2,30.10,WSW,248,6.3,6.3,70,0.00,OVC,,0.01,WeatherDisplay:10.37,2013-05-25 02:03:00,
2013-05-24 22:08:00,42.3,32.8,30.10,West,270,10.4,10.4,69,0.00,OVC,,0.01,WeatherDisplay:10.37,2013-05-25 02:08:00,
2013-05-24 22:13:00,42.1,32.7,30.10,West,270,10.4,10.4,69,0.00,OVC,,0.01,WeatherDisplay:10.37,2013-05-25 02:13:00,
2013-05-24 22:18:00,42.1,32.7,30.10,West,270,8.1,8.1,69,0.00,OVC,,0.01,WeatherDisplay:10.37,2013-05-25 02:18:00,
2013-05-24 22:23:00,42.1,32.7,30.10,NNW,338,6.9,6.9,69,0.00,OVC,,0.01,WeatherDisplay:10.37,2013-05-25 02:23:00,
2013-05-24 22:28:00,41.9,32.5,30.10,West,270,9.9,9.9,69,0.00,OVC,,0.01,WeatherDisplay:10.37,2013-05-25 02:28:00,
2013-05-24 22:33:00,41.9,32.5,30.10,WSW,248,5.8,5.8,69,0.00,OVC,,0.01,WeatherDisplay:10.37,2013-05-25 02:33:00,
2013-05-24 22:38:00,41.9,32.8,30.10,WNW,292,5.3,5.3,70,0.00,OVC,,0.01,WeatherDisplay:10.37,2013-05-25 02:38:00,
2013-05-24 22:43:00,41.9,33.2,30.10,West,270,5.8,5.8,71,0.00,OVC,,0.01,WeatherDisplay:10.37,2013-05-25 02:43:00,
2013-05-24 22:48:00,41.7,33.3,30.10,WSW,248,6.9,6.9,72,0.00,OVC,,0.01,WeatherDisplay:10.37,2013-05-25 02:48:00,
2013-05-24 22:53:00,41.7,33.0,30.11,NW,315,8.1,8.1,71,0.00,OVC,,0.01,WeatherDisplay:10.37,2013-05-25 02:53:00,
2013-05-24 22:58:00,41.7,33.0,30.11,West,270,10.9,10.9,71,0.00,OVC,,0.01,WeatherDisplay:10.37,2013-05-25 02:58:00,
2013-05-24 23:03:00,41.5,32.4,30.11,NW,315,7.3,7.3,70,0.00,OVC,,0.01,WeatherDisplay:10.37,2013-05-25 03:03:00,
2013-05-24 23:08:00,41.4,32.0,30.11,West,270,11.5,11.5,69,0.00,OVC,,0.01,WeatherDisplay:10.37,2013-05-25 03:08:00,
2013-05-24 23:13:00,41.2,31.8,30.11,SW,225,8.1,8.1,69,0.00,OVC,,0.01,WeatherDisplay:10.37,2013-05-25 03:13:00,
2013-05-24 23:18:00,41.0,32.0,30.11,WSW,248,6.9,6.9,70,0.00,OVC,,0.01,WeatherDisplay:10.37,2013-05-25 03:18:00,
2013-05-24 23:23:00,40.6,32.3,30.11,West,270,6.9,6.9,72,0.00,OVC,,0.01,WeatherDisplay:10.37,2013-05-25 03:23:00,
2013-05-24 23:28:00,40.3,32.0,30.10,SW,225,4.7,4.7,72,0.00,OVC,,0.01,WeatherDisplay:10.37,2013-05-25 03:28:00,
2013-05-24 23:33:00,40.1,32.1,30.10,SW,225,7.3,7.3,73,0.00,OVC,,0.01,WeatherDisplay:10.37,2013-05-25 03:33:00,
2013-05-24 23:38:00,40.1,32.1,30.10,SW,225,6.3,6.3,73,0.00,OVC,,0.01,WeatherDisplay:10.37,2013-05-25 03:38:00,
2013-05-24 23:43:00,40.1,32.5,30.10,SW,225,5.8,5.8,74,0.00,OVC,,0.01,WeatherDisplay:10.37,2013-05-25 03:43:00,
2013-05-24 23:48:00,39.9,32.6,30.10,WSW,248,5.8,5.8,75,0.00,OVC,,0.01,WeatherDisplay:10.37,2013-05-25 03:48:00,
2013-05-24 23:53:00,39.9,32.9,30.11,WSW,248,6.9,6.9,76,0.00,OVC,,0.01,WeatherDisplay:10.37,2013-05-25 03:53:00,
2013-05-24 23:58:00,39.9,32.6,30.11,WSW,248,5.8,5.8,75,0.00,OVC,,0.01,WeatherDisplay:10.37,2013-05-25 03:58:00,